When you browse on this site, cookies collect data to enhance your experience and personalize the content and advertising you see.
Visit our Privacy Policy to learn more. By continuing to use the site, you agree to this use of cookies and data.
  • In Hungary
  • List of Countries
  • For 7 days
  • Water Temperature
  • Weather Map
  • News
  • Weather Widgets
  • user-avatar
    Login

    Hourly Weather Ermohnovo

    Today, 18 September, Wednesday

    Time Temperature Precipitation Wind Pressure Humidity
    00:00 +5°C° 0 mm 0 mps 740 mmHg 96%
    01:00 +4°C° 0 mm 0 mps 740 mmHg 96%
    02:00 +4°C° 0 mm 0 mps 740 mmHg 96%
    03:00 +4°C° 0 mm 0 mps 740 mmHg 96%
    04:00 +5°C° 0 mm 1 mps 740 mmHg 97%
    05:00 +5°C° 0 mm 1 mps 740 mmHg 97%
    06:00 +6°C° 0 mm 1 mps 740 mmHg 96%
    07:00 +6°C° 0 mm 2 mps 741 mmHg 94%
    08:00 +7°C° 0 mm 2 mps 741 mmHg 93%
    09:00 +8°C° 0 mm 2 mps 741 mmHg 87%
    10:00 +9°C° 0 mm 2 mps 742 mmHg 81%
    11:00 +10°C° 0 mm 2 mps 742 mmHg 75%
    12:00 +12°C° 0.1 mm 2 mps 742 mmHg 72%
    13:00 +12°C° 0.1 mm 3 mps 743 mmHg 69%
    14:00 +12°C° 0.1 mm 3 mps 743 mmHg 66%
    15:00 +11°C° 0.4 mm 3 mps 744 mmHg 73%
    16:00 +11°C° 0.4 mm 3 mps 744 mmHg 80%
    17:00 +10°C° 0.4 mm 3 mps 745 mmHg 87%
    18:00 +9°C° 0.1 mm 3 mps 745 mmHg 89%
    19:00 +8°C° 0.1 mm 3 mps 746 mmHg 92%
    20:00 +7°C° 0.1 mm 3 mps 746 mmHg 95%
    21:00 +6°C° 0 mm 2 mps 747 mmHg 95%
    22:00 +6°C° 0 mm 2 mps 748 mmHg 96%
    23:00 +5°C° 0 mm 2 mps 748 mmHg 97%

    Tomorrow, 19 September, Thursday

    Time Temperature Precipitation Wind Pressure Humidity
    00:00 +5°C° 0 mm 2 mps 749 mmHg 96%
    01:00 +4°C° 0 mm 2 mps 749 mmHg 96%
    02:00 +3°C° 0 mm 2 mps 749 mmHg 96%
    03:00 +4°C° 0 mm 1 mps 750 mmHg 96%
    04:00 +4°C° 0 mm 1 mps 750 mmHg 96%
    05:00 +4°C° 0 mm 1 mps 751 mmHg 96%
    06:00 +5°C° 0 mm 1 mps 751 mmHg 94%
    07:00 +6°C° 0 mm 1 mps 751 mmHg 92%
    08:00 +7°C° 0 mm 1 mps 752 mmHg 90%
    09:00 +7°C° 0 mm 1 mps 752 mmHg 85%
    10:00 +8°C° 0 mm 1 mps 752 mmHg 80%
    11:00 +9°C° 0 mm 1 mps 752 mmHg 76%
    12:00 +9°C° 0.1 mm 1 mps 752 mmHg 75%
    13:00 +10°C° 0.1 mm 1 mps 752 mmHg 73%
    14:00 +10°C° 0.1 mm 1 mps 752 mmHg 72%
    15:00 +10°C° 0.1 mm 1 mps 752 mmHg 75%
    16:00 +10°C° 0.1 mm 1 mps 752 mmHg 78%
    17:00 +9°C° 0.1 mm 0 mps 752 mmHg 81%
    18:00 +8°C° 0.1 mm 0 mps 752 mmHg 84%
    19:00 +8°C° 0.1 mm 1 mps 752 mmHg 87%
    20:00 +6°C° 0.1 mm 1 mps 752 mmHg 91%
    21:00 +6°C° 0 mm 1 mps 752 mmHg 91%
    22:00 +6°C° 0 mm 1 mps 752 mmHg 91%
    23:00 +6°C° 0 mm 1 mps 752 mmHg 91%

    Day after tomorrow, 20 September, Friday

    Time Temperature Precipitation Wind Pressure Humidity
    00:00 +6°C° 0.4 mm 1 mps 752 mmHg 91%
    01:00 +6°C° 0.4 mm 1 mps 752 mmHg 91%
    02:00 +6°C° 0.4 mm 1 mps 752 mmHg 91%
    03:00 +6°C° 0.3 mm 1 mps 752 mmHg 91%
    04:00 +6°C° 0.3 mm 1 mps 752 mmHg 92%
    05:00 +6°C° 0.3 mm 1 mps 752 mmHg 93%
    06:00 +5°C° 0.1 mm 2 mps 753 mmHg 91%
    07:00 +5°C° 0.1 mm 2 mps 753 mmHg 90%
    08:00 +5°C° 0.1 mm 2 mps 753 mmHg 88%
    09:00 +7°C° 0 mm 2 mps 754 mmHg 81%
    10:00 +8°C° 0 mm 3 mps 754 mmHg 74%
    11:00 +9°C° 0 mm 3 mps 755 mmHg 67%
    12:00 +10°C° 0 mm 3 mps 755 mmHg 62%
    13:00 +10°C° 0 mm 3 mps 755 mmHg 58%
    14:00 +11°C° 0 mm 3 mps 756 mmHg 54%
    15:00 +10°C° 0 mm 3 mps 756 mmHg 60%
    16:00 +9°C° 0 mm 3 mps 756 mmHg 65%
    17:00 +8°C° 0 mm 2 mps 756 mmHg 71%
    18:00 +7°C° 0 mm 2 mps 757 mmHg 76%
    19:00 +6°C° 0 mm 2 mps 757 mmHg 82%
    20:00 +4°C° 0 mm 2 mps 758 mmHg 88%
    21:00 +4°C° 0 mm 2 mps 758 mmHg 87%
    22:00 +3°C° 0 mm 2 mps 759 mmHg 86%
    23:00 +3°C° 0 mm 1 mps 759 mmHg 85%

    21 September, Saturday

    Time Temperature Precipitation Wind Pressure Humidity
    00:00 +3°C° 0 mm 1 mps 759 mmHg 85%
    01:00 +3°C° 0 mm 1 mps 759 mmHg 85%
    02:00 +2°C° 0 mm 1 mps 759 mmHg 86%
    03:00 +2°C° 0 mm 1 mps 759 mmHg 85%
    04:00 +3°C° 0 mm 1 mps 759 mmHg 85%
    05:00 +2°C° 0 mm 2 mps 759 mmHg 85%
    06:00 +3°C° 0 mm 2 mps 758 mmHg 83%
    07:00 +3°C° 0 mm 3 mps 758 mmHg 82%
    08:00 +3°C° 0 mm 3 mps 757 mmHg 80%
    09:00 +4°C° 0.5 mm 4 mps 757 mmHg 85%
    10:00 +4°C° 0.5 mm 4 mps 756 mmHg 89%
    11:00 +3°C° 0.5 mm 5 mps 756 mmHg 93%
    12:00 +5°C° 0.7 mm 5 mps 755 mmHg 94%
    13:00 +5°C° 0.7 mm 5 mps 755 mmHg 95%
    14:00 +6°C° 0.7 mm 5 mps 754 mmHg 96%
    15:00 +7°C° 0.8 mm 5 mps 753 mmHg 96%
    16:00 +8°C° 0.8 mm 5 mps 752 mmHg 96%
    17:00 +9°C° 0.8 mm 5 mps 752 mmHg 96%
    18:00 +9°C° 0.2 mm 5 mps 751 mmHg 94%
    19:00 +10°C° 0.2 mm 5 mps 751 mmHg 93%
    20:00 +10°C° 0.2 mm 5 mps 751 mmHg 91%
    21:00 +10°C° 0 mm 5 mps 751 mmHg 90%
    22:00 +10°C° 0 mm 6 mps 751 mmHg 90%
    23:00 +10°C° 0 mm 6 mps 751 mmHg 90%

    22 September, Sunday

    Time Temperature Precipitation Wind Pressure Humidity
    00:00 +10°C° 0 mm 6 mps 751 mmHg 89%
    01:00 +10°C° 0 mm 6 mps 750 mmHg 88%
    02:00 +10°C° 0 mm 6 mps 750 mmHg 88%
    03:00 +10°C° 0 mm 6 mps 750 mmHg 87%
    04:00 +10°C° 0 mm 6 mps 750 mmHg 87%
    05:00 +10°C° 0 mm 6 mps 750 mmHg 86%
    06:00 +10°C° 0.1 mm 6 mps 751 mmHg 82%
    07:00 +9°C° 0.1 mm 6 mps 751 mmHg 78%
    08:00 +8°C° 0.1 mm 5 mps 752 mmHg 74%
    09:00 +8°C° 0 mm 6 mps 752 mmHg 65%
    10:00 +9°C° 0 mm 6 mps 753 mmHg 56%
    11:00 +9°C° 0 mm 6 mps 754 mmHg 48%
    12:00 +9°C° 0 mm 6 mps 754 mmHg 47%
    13:00 +10°C° 0 mm 6 mps 754 mmHg 47%
    14:00 +10°C° 0 mm 6 mps 755 mmHg 47%
    15:00 +9°C° 0 mm 5 mps 755 mmHg 51%
    16:00 +8°C° 0 mm 4 mps 755 mmHg 55%
    17:00 +8°C° 0 mm 3 mps 756 mmHg 60%
    18:00 +7°C° 0 mm 3 mps 756 mmHg 65%
    19:00 +5°C° 0 mm 2 mps 756 mmHg 70%
    20:00 +4°C° 0 mm 2 mps 757 mmHg 75%
    21:00 +5°C° 0 mm 1 mps 757 mmHg 76%
    22:00 +4°C° 0 mm 1 mps 757 mmHg 78%
    23:00 +4°C° 0 mm 1 mps 757 mmHg 79%

    23 September, Monday

    Time Temperature Precipitation Wind Pressure Humidity
    00:00 +3°C° 0 mm 1 mps 758 mmHg 79%
    01:00 +2°C° 0 mm 0 mps 758 mmHg 79%
    02:00 +2°C° 0 mm 0 mps 758 mmHg 79%
    03:00 +2°C° 0 mm 0 mps 758 mmHg 79%
    04:00 +2°C° 0 mm 0 mps 758 mmHg 79%
    05:00 +2°C° 0 mm 0 mps 758 mmHg 78%
    06:00 +3°C° 0 mm 0 mps 758 mmHg 75%
    07:00 +4°C° 0 mm 0 mps 758 mmHg 71%
    08:00 +6°C° 0 mm 0 mps 758 mmHg 67%
    09:00 +7°C° 0 mm 0 mps 758 mmHg 63%
    10:00 +9°C° 0 mm 1 mps 758 mmHg 58%
    11:00 +10°C° 0 mm 1 mps 758 mmHg 54%
    12:00 +10°C° 0 mm 1 mps 758 mmHg 53%
    13:00 +10°C° 0 mm 1 mps 757 mmHg 52%
    14:00 +11°C° 0 mm 1 mps 757 mmHg 51%
    15:00 +10°C° 0 mm 1 mps 757 mmHg 55%
    16:00 +10°C° 0 mm 1 mps 757 mmHg 60%
    17:00 +9°C° 0 mm 1 mps 757 mmHg 64%
    18:00 +7°C° 0 mm 2 mps 757 mmHg 68%
    19:00 +6°C° 0 mm 2 mps 757 mmHg 71%
    20:00 +4°C° 0 mm 2 mps 757 mmHg 75%
    21:00 +4°C° 0 mm 2 mps 757 mmHg 77%
    22:00 +3°C° 0 mm 2 mps 757 mmHg 79%
    23:00 +2°C° 0 mm 2 mps 757 mmHg 82%
    Show more